Flag for Germany Weather past 2 weeks in Saarbrücken, Saarland, Germany

Now
36 °F

Clear.


Feels Like: 31 °F
Forecast: 35 / 53 °F
Wind: 6 mph from East

Location: Saarbruecken / Ensheim


UV Index: 0 (Low)

Visibility: 10 mi


Pressure: 30.30 "Hg

Humidity: 70%

Dew point: 27 °F

Location of SaarbrückenLocation

Historic Weather in Saarbrücken

°F

Saarbrücken temperature yesterday

Maximum temperature yesterday: 55 °F (at 2:50 PM)
Minimum temperature yesterday: 36 °F (at 6:20 AM)
Average temperature yesterday: 46 °F

Past Weeks' High & Low Weather Summary

 TemperatureHumidityPressure
High70 °F (Apr 2, 2:20 PM)94% (Apr 5, 8:50 AM)30.39 "Hg (Apr 5, 8:50 AM)
Low34 °F (Apr 9, 6:50 AM)29% (Apr 3, 12:50 PM)29.65 "Hg (Apr 3, 2:20 AM)
Average53 °F63%30.04 "Hg
* Reported Apr 2 2:20 AM — Apr 17 2:50 AM, Saarbrücken, Weather by CustomWeather, © 2014

Note: Actual official high and low records may vary slightly from our data, if they occured in-between our weather recording intervals... More about our weather records

Advertising

Historic Weather Conditions — Data for Previous 24 hours

 ConditionsComfort  
Time TempWeatherWind HumidityBarometerVisibility
2:50 AM
Apr 17
36 °FClear.8 mph75%30.30 "Hg10 mi
2:20 AM39 °FClear.7 mph61%30.30 "Hg10 mi
1:50 AM37 °FClear.7 mph70%30.30 "Hg10 mi
1:20 AM39 °FClear.8 mph65%30.30 "Hg10 mi
12:50 AM37 °FClear.8 mph70%30.30 "Hg10 mi
12:20 AM39 °FClear.7 mph65%30.33 "Hg10 mi
11:50 PM
Apr 16
39 °FClear.7 mph65%30.33 "Hg10 mi
11:20 PM41 °FClear.5 mph66%30.33 "Hg10 mi
10:50 PM41 °FClear.5 mph66%30.33 "Hg10 mi
10:20 PM41 °FClear.7 mph61%30.33 "Hg10 mi
9:50 PM43 °FClear.7 mph57%30.33 "Hg10 mi
9:20 PM45 °FSunny.7 mph53%30.33 "Hg10 mi
8:50 PM46 °FSunny.6 mph50%30.33 "Hg10 mi
8:20 PM50 °FSunny.5 mph43%30.33 "Hg10 mi
7:50 PM52 °FSunny.7 mph41%30.33 "Hg10 mi
7:20 PM52 °FSunny.8 mph41%30.33 "Hg10 mi
6:50 PM54 °FSunny.10 mph38%30.33 "Hg10 mi
6:20 PM54 °FSunny.12 mph35%30.33 "Hg10 mi
5:50 PM55 °FSunny.10 mph38%30.33 "Hg10 mi
5:20 PM55 °FSunny.12 mph38%30.33 "Hg10 mi
4:50 PM55 °FSunny.13 mph36%30.33 "Hg10 mi
4:20 PM55 °FSunny.13 mph33%30.33 "Hg10 mi
3:50 PM55 °FSunny.7 mph33%30.33 "Hg10 mi
3:20 PM55 °FSunny.9 mph36%30.36 "Hg10 mi
2:50 PM55 °FPassing clouds.12 mph36%30.36 "HgN/A
2:20 PM54 °FPassing clouds.10 mph35%30.36 "HgN/A
1:50 PM54 °FPassing clouds.14 mph38%30.36 "HgN/A
1:20 PM52 °FPassing clouds.13 mph41%30.36 "HgN/A
12:50 PM52 °FPassing clouds.8 mph44%30.36 "HgN/A
12:20 PM48 °FPassing clouds.12 mph50%30.39 "HgN/A
11:50 AM48 °FPassing clouds.12 mph50%30.39 "HgN/A
11:20 AM48 °FPassing clouds.14 mph58%30.39 "HgN/A
10:50 AM46 °FPassing clouds.12 mph57%30.39 "HgN/A
10:20 AM46 °FPassing clouds.10 mph62%30.39 "HgN/A
9:50 AM45 °FSunny.13 mph61%30.39 "Hg10 mi
9:20 AM43 °FSunny.8 mph66%30.39 "Hg10 mi
8:50 AM41 °FSunny.9 mph66%30.36 "Hg10 mi
8:20 AM39 °FSunny.12 mph70%30.36 "Hg10 mi
7:50 AM37 °FSunny.8 mph75%30.36 "Hg10 mi
7:20 AM36 °FClear.8 mph81%30.33 "Hg10 mi
6:50 AM36 °FClear.9 mph81%30.33 "Hg10 mi
6:20 AM36 °FClear.9 mph75%30.33 "Hg10 mi
5:50 AM37 °FClear.8 mph70%30.33 "Hg10 mi
5:20 AM37 °FPassing clouds.8 mph70%30.33 "HgN/A
4:50 AM39 °FPassing clouds.9 mph70%30.33 "HgN/A
4:20 AM39 °FPassing clouds.7 mph70%30.33 "HgN/A
Weather by CustomWeather, © 2014

See weather overview